OpenBCM V1.13 (Linux)

Packet Radio Mailbox

DB0FHN

[JN59NK Nuernberg]

 Login: GUEST





  
PE1RRR > KEPS     22.04.20 18:07l 7 Lines 331 Bytes #999 (0) @ WW
BID : 8033_PE1RRR
Read: DF7EAV DL8SFG DJ6UX GUEST
Subj: Starlink Prelim TLEs for Today's Launch
Path: DB0FHN<OE2XZR<OE1XAB<HG8LXL<CX2SA<PE1RRR
Sent: 200422/1600Z 8033@PE1RRR.NLD.EURO LinBPQ6.0.19

STARLINK-7 FULL STACK   
1 72000C 20024A   20113.82321100  .00085101  00000-0  11067-3 0    07
2 72000  53.0050  40.7567 0115390  53.0157  21.6954 15.94354450    11
STARLINK-7 SINGLE SAT   
1 72001C 20024B   20113.82321100  .01248383  00000-0  16279-2 0    01
2 72001  53.0049  40.7567 0115318  53.0979  21.6142 15.94324208    19


Read previous mail | Read next mail


 13.06.2026 16:08:38lGo back Go up